Home > Weather > Berlin > Past weeks

Flag for Germany Weather for the Past 2 Weeks in Berlin, Berlin, Germany

Now
48 °F

Broken clouds.


Feels Like: 42 °F
Forecast: 38 / 44 °F
Wind: 17 mph from Southwest

Location: Berlin-Tegel

Current Time: Feb 9, 2016 at 1:19:41 PM

Latest Report: Feb 9, 2016 at 12:20 PM


Visibility: N/A

Pressure: 29.39 "Hg

Humidity: 58%

Dew point: 34 °F

Location of BerlinLocation

Historic Weather in Berlin — Graph

°F

Berlin Temperature Yesterday

Maximum temperature yesterday: 52 °F (at 3:20 PM)
Minimum temperature yesterday: 43 °F (at 12:50 AM)
Average temperature yesterday: 46 °F

High & Low Weather Summary for the Past Weeks

 TemperatureHumidityPressure
High54 °F (Jan 27, 12:20 PM)100% (Jan 25, 12:20 PM)30.24 "Hg (Jan 25, 12:20 PM)
Low30 °F (Feb 5, 5:20 AM)44% (Feb 2, 1:20 PM)29.30 "Hg (Feb 8, 3:20 PM)
Average44 °F76%29.88 "Hg
* Reported Jan 25 12:20 PM — Feb 9 12:20 PM, Berlin, Weather by CustomWeather, © 2016

Note: Actual official high and low records may vary slightly from our data, if they occured in-between our weather recording intervals... More about our weather records

Advertising

Berlin Weather History for the Previous 24 Hours

 ConditionsComfort  
Time TempWeatherWind HumidityBarometerVisibility
12:20 PM
Tue, Feb 9
48 °FBroken clouds.17 mph58%29.39 "HgN/A
11:20 AM48 °FPartly sunny.17 mph58%29.42 "HgN/A
10:50 AM48 °FPartly sunny.17 mph54%29.42 "HgN/A
10:20 AM48 °FSunny.18 mph54%29.42 "Hg10 mi
9:50 AM48 °FSunny.18 mph54%29.42 "Hg10 mi
9:20 AM46 °FSunny.20 mph57%29.42 "Hg10 mi
8:50 AM46 °FSunny.17 mph57%29.42 "Hg10 mi
8:20 AM46 °FSunny.16 mph53%29.42 "Hg10 mi
7:50 AM46 °FSunny.20 mph53%29.42 "Hg10 mi
7:20 AM46 °FClear.21 mph57%29.39 "Hg10 mi
6:50 AM46 °FClear.20 mph57%29.39 "Hg10 mi
6:20 AM48 °FClear.23 mph54%29.39 "Hg10 mi
5:50 AM46 °FClear.21 mph57%29.39 "Hg10 mi
5:20 AM46 °FPassing clouds.21 mph62%29.36 "HgN/A
4:50 AM46 °FPassing clouds.22 mph62%29.36 "HgN/A
4:20 AM46 °FPassing clouds.22 mph62%29.36 "HgN/A
3:50 AM46 °FPassing clouds.20 mph62%29.36 "HgN/A
3:20 AM46 °FLight rain. Passing clouds.22 mph66%29.36 "HgN/A
2:50 AM46 °FPassing clouds.22 mph62%29.36 "HgN/A
2:20 AM46 °FPassing clouds.21 mph62%29.36 "HgN/A
1:50 AM46 °FPassing clouds.18 mph62%29.36 "HgN/A
1:20 AM46 °FClear.17 mph62%29.36 "Hg10 mi
12:50 AM45 °FPartly cloudy.18 mph66%29.36 "HgN/A
12:20 AM45 °FPassing clouds.17 mph66%29.36 "HgN/A
11:50 PM
Mon, Feb 8
46 °FPassing clouds.21 mph62%29.36 "HgN/A
11:20 PM45 °FPassing clouds.16 mph71%29.36 "HgN/A
10:50 PM45 °FPassing clouds.13 mph71%29.36 "HgN/A
10:20 PM45 °FPassing clouds.10 mph71%29.36 "HgN/A
9:50 PM45 °FClear.15 mph71%29.36 "Hg10 mi
9:20 PM46 °FClear.17 mph66%29.36 "Hg10 mi
8:50 PM46 °FClear.15 mph66%29.36 "Hg10 mi
8:20 PM46 °FClear.14 mph66%29.33 "Hg10 mi
7:50 PM45 °FPartly cloudy.16 mph76%29.33 "HgN/A
7:20 PM46 °FPassing clouds.17 mph71%29.33 "HgN/A
6:50 PM46 °FPassing clouds.20 mph71%29.33 "HgN/A
6:20 PM48 °FClear.23 mph66%29.30 "Hg10 mi
5:50 PM50 °FPassing clouds.16 mph67%29.30 "HgN/A
5:20 PM50 °FPassing clouds.23 mph67%29.30 "HgN/A
4:50 PM50 °FBroken clouds.23 mph67%29.30 "HgN/A
4:20 PM52 °FPartly sunny.22 mph62%29.30 "HgN/A
3:50 PM52 °FBroken clouds.23 mph62%29.30 "HgN/A
3:20 PM52 °FBroken clouds.21 mph62%29.30 "HgN/A
2:50 PM50 °FPartly sunny.16 mph67%29.33 "HgN/A
2:20 PM50 °FPartly sunny.14 mph67%29.33 "HgN/A
1:50 PM48 °FPartly sunny.15 mph71%29.33 "HgN/A
1:20 PM46 °FLight rain. Partly sunny.14 mph76%29.36 "HgN/A
Weather by CustomWeather, © 2016

See weather overviewHow to use our weather pages